WR7DW-3 Weather Reports


time (UTC)temp
C
wind
direction
speed
KPH
gust
KPH
rain 1hr
cm
rain 24hr
cm
rain mn
cm
humidity
%
barometer
mb
20260505004440 3 326 0.0 0.0 0.00 0.00 0.00 66 1006.6
20260505002943 3 295 0.0 0.0 0.00 0.00 0.00 66 1006.4
20260505001441 2 227 0.0 0.0 0.00 0.00 0.00 68 1006.4
20260504235941 2 282 0.0 0.0 0.00 0.00 0.00 68 1006.5
20260504234441 3 293 0.0 0.0 0.00 0.00 0.00 66 1006.3
20260504232943 3 257 0.0 0.0 0.00 0.00 0.00 67 1006.5
20260504231441 2 276 0.0 0.0 0.00 0.00 0.00 68 1006.3
20260504225941 2 144 0.0 0.0 0.00 0.00 0.00 66 1006.0
20260504224441 2 310 0.0 0.0 0.00 0.00 0.00 67 1006.0
20260504222941 3 289 0.0 0.0 0.00 0.00 0.00 67 1005.7
20260504221441 3 235 0.0 0.0 0.00 0.00 0.00 67 1005.5
20260504215941 3 288 0.0 0.0 0.00 0.00 0.00 66 1005.7
20260504214441 4 290 0.0 0.0 0.00 0.00 0.00 65 1005.6
20260504212941 4 229 0.0 0.0 0.00 0.00 0.00 65 1005.3
20260504211441 5 237 0.0 0.0 0.00 0.00 0.00 63 1005.6
20260504205941 5 15 0.0 0.0 0.00 0.00 0.00 60 1005.4
20260504204441 5 99 0.0 0.0 0.00 0.00 0.00 64 1005.6
20260504202941 5 174 0.0 0.0 0.00 0.00 0.00 61 1005.4
20260504201441 6 130 0.0 0.0 0.00 0.00 0.00 59 1005.4
20260504195941 5 118 0.0 0.0 0.00 0.00 0.00 62 1005.4
20260504194441 5 190 0.0 0.0 0.00 0.00 0.00 62 1005.4
20260504192941 6 287 0.0 0.0 0.00 0.00 0.00 60 1005.6
20260504191441 5 199 0.0 0.0 0.00 0.00 0.00 61 1005.6
20260504185941 5 288 0.0 0.0 0.00 0.00 0.00 63 1005.6
20260504184441 5 206 0.0 0.0 0.00 0.00 0.00 64 1005.6
20260504182942 5 136 0.0 0.0 0.00 0.00 0.00 63 1005.7
20260504181441 4 214 0.0 0.0 0.00 0.00 0.00 66 1005.4
20260504174441 3 320 0.0 0.0 0.00 0.00 0.00 67 1005.4
20260504172941 3 130 0.0 0.0 0.00 0.00 0.00 66 1005.4
20260504171441 3 268 0.0 0.0 0.00 0.00 0.00 65 1005.1
20260504081442 2 326 0.0 0.0 0.00 0.00 0.00 68 1001.7
20260504045943 10 321 0.0 0.0 0.00 0.00 0.00 44 1001.3
20260504044443 10 310 0.0 0.0 0.00 0.00 0.00 45 1001.4
20260504042943 10 321 0.0 0.0 0.00 0.00 0.00 44 1001.4
20260504041443 10 334 0.0 0.0 0.00 0.00 0.00 44 1001.5
20260504035943 10 328 0.0 0.0 0.00 0.00 0.00 43 1001.6
20260504034443 10 354 0.0 0.0 0.00 0.00 0.00 44 1001.6
20260504032943 10 320 0.0 0.0 0.00 0.00 0.00 44 1001.5
20260504031443 10 342 0.0 0.0 0.00 0.00 0.00 44 1001.4
20260504025943 10 334 0.0 0.0 0.00 0.00 0.00 44 1001.4
20260504024443 10 324 0.0 0.0 0.00 0.00 0.00 44 1001.2
20260504021443 11 320 0.0 0.0 0.00 0.00 0.00 42 1001.2
20260504015943 11 307 0.0 0.0 0.00 0.00 0.00 40 1001.2
20260504014443 11 316 0.0 0.0 0.00 0.00 0.00 41 1001.2
20260504012943 12 307 0.0 0.0 0.00 0.00 0.00 39 1001.3
20260504011447 12 308 0.0 0.0 0.00 0.00 0.00 38 1001.5
20260504005943 12 326 0.0 0.0 0.00 0.00 0.00 38 1001.4